Lapse_Rate
6.2 6.2 6.3 6.0 5.9 5.8 5.7 5.7 5.6 5.7 5.6 5.6 5.5 5.5 5.5 5.5 5.5 5.7 5.9 5.9 6.1 6.3 6.3 6.1 6.0 5.8 5.7 5.8 5.8 5.8 5.6 5.7 6.1 6.0 6.0 6.2 6.5 6.3 6.2 6.3 6.4 6.5 6.6
6.3 6.2 6.1 5.9 5.8 5.7 5.7 5.7 5.7 5.7 5.7 5.8 5.9 6.0 6.1 6.0 6.1 6.3 6.4 6.3 6.1 6.0 5.8 5.9 6.0 6.1 6.0 5.8 5.7 5.7 5.7 5.7 5.8 5.8 5.9 6.0 6.3 6.5 6.4 6.3 6.2 6.4 6.5
6.2 6.1 5.9 5.7 5.6 5.8 5.8 5.8 5.8 5.9 6.0 6.2 6.3 6.4 6.4 6.6 6.6 6.3 6.2 6.0 5.9 5.9 5.9 5.9 5.8 5.7 5.8 5.7 5.6 5.7 5.7 5.7 5.6 5.5 5.8 5.9 5.8 5.7 6.0 6.2 6.3 6.4 6.6
5.9 5.7 5.7 5.7 5.9 5.9 5.8 5.9 5.9 6.1 6.4 6.5 6.7 6.8 6.9 6.6 6.5 6.3 6.0 5.9 5.7 5.7 5.5 5.4 5.3 5.4 5.4 5.4 5.6 5.7 5.6 5.6 5.5 5.6 5.7 6.0 5.8 5.6 5.3 5.5 5.8 6.1 6.4
5.7 5.7 5.8 5.9 5.8 5.8 5.9 6.0 6.2 6.4 6.5 6.8 7.1 7.0 6.8 6.4 6.2 6.1 5.9 5.8 5.7 5.5 5.5 5.6 5.6 5.6 5.6 5.5 5.4 5.5 5.2 5.5 5.7 5.8 5.8 5.7 5.4 5.5 5.6 5.6 5.6 6.0 6.3
5.7 5.7 5.7 5.7 5.7 5.9 6.1 6.3 6.4 6.6 6.9 7.1 6.9 6.7 6.5 6.3 6.2 6.0 5.7 5.3 5.1 4.6 4.7 4.9 5.0 5.2 5.5 5.7 6.0 6.0 5.9 5.9 5.8 5.7 5.8 5.9 6.1 6.0 5.9 6.0 5.7 6.2 6.5
5.6 5.6 5.6 5.7 5.9 6.1 6.3 6.5 6.8 7.0 7.1 6.8 6.5 6.4 6.3 6.4 6.1 5.8 5.6 5.1 4.9 4.8 4.7 4.7 4.9 5.3 5.8 6.0 6.2 6.2 6.3 6.2 6.3 6.2 6.2 6.4 6.5 6.5 6.2 6.2 6.2 6.3 6.2
5.5 5.5 5.6 5.8 6.1 6.4 6.7 6.9 7.1 7.0 6.9 6.4 6.3 6.2 6.3 6.3 6.0 5.8 5.4 4.9 5.0 5.0 4.9 5.1 5.5 5.8 6.1 6.2 6.3 6.4 6.4 6.3 6.2 6.3 6.3 6.7 6.7 6.8 6.8 6.6 6.8 6.8 6.3
5.5 5.7 5.9 6.0 6.5 6.9 7.0 7.0 6.9 6.8 6.4 6.2 6.2 6.3 6.2 6.2 5.7 5.4 5.1 5.0 4.9 4.9 5.2 5.9 6.2 6.2 6.3 6.8 6.7 6.4 6.3 6.5 6.3 6.5 6.3 6.3 6.8 7.1 7.4 7.3 7.4 7.4 7.4
5.8 5.9 6.3 6.8 7.0 7.1 7.0 6.8 6.5 6.3 6.0 6.0 6.2 6.1 5.9 5.6 5.5 5.4 5.0 4.8 4.8 5.2 6.0 6.3 6.6 6.4 6.9 6.9 6.7 6.7 6.6 6.6 6.1 6.1 6.2 6.6 7.0 7.3 7.4 7.4 7.4 7.1 7.3
6.2 6.6 6.8 7.2 7.2 6.9 6.7 6.3 6.0 5.8 5.9 5.9 6.0 5.9 5.6 5.5 5.4 5.2 5.1 5.0 5.1 5.5 6.2 6.5 6.5 6.8 7.1 7.0 6.8 6.8 6.7 6.4 6.4 6.4 6.7 7.0 7.1 7.2 7.2 7.2 7.3 7.2 7.2
6.5 6.8 7.1 7.0 6.8 6.4 6.1 5.9 5.7 5.6 5.7 5.7 5.7 5.5 5.3 5.1 5.0 4.9 4.7 5.0 5.3 5.6 6.2 6.3 6.3 6.5 6.8 6.8 6.7 6.8 6.9 6.8 6.9 7.1 7.1 7.3 7.3 7.3 7.3 7.5 7.4 7.1 7.2
6.9 7.0 7.0 6.7 6.4 6.1 5.8 5.7 5.7 5.5 5.4 5.4 5.3 5.1 5.0 5.1 4.9 4.8 4.7 5.1 5.6 5.9 6.0 5.9 6.0 6.3 6.6 6.6 6.8 7.1 7.2 7.4 7.4 7.2 7.2 7.2 7.1 7.1 7.2 7.4 7.1 7.1 7.3
7.0 6.8 6.6 6.3 6.1 5.9 5.7 5.5 5.3 5.2 5.2 5.2 5.0 4.7 4.3 4.2 4.3 4.5 4.8 5.0 5.4 6.0 5.9 5.8 5.7 6.2 6.6 6.9 7.3 7.4 7.4 7.7 7.5 7.3 7.1 7.1 7.2 7.3 7.2 7.0 7.1 7.0 7.4
6.7 6.5 6.3 6.1 5.9 5.7 5.5 5.3 5.2 5.0 4.9 4.8 4.5 4.2 4.2 4.2 4.3 4.3 4.6 5.0 5.5 5.9 6.1 5.9 5.9 6.2 6.7 7.0 7.4 7.6 7.7 7.6 7.5 7.3 7.1 7.1 7.3 7.2 7.1 7.0 7.2 7.2 7.0
6.6 6.3 6.1 5.7 5.7 5.4 5.3 5.4 5.2 5.0 5.0 4.9 4.7 4.3 4.3 4.4 4.4 4.6 4.4 4.4 5.2 6.0 6.1 6.1 6.1 6.5 6.9 7.3 7.3 7.5 7.6 7.7 7.5 7.2 7.1 7.1 7.2 7.1 7.2 7.2 7.3 7.2 7.1
6.4 6.1 5.9 5.6 5.4 5.2 5.2 5.0 5.2 5.1 4.9 4.6 4.5 4.4 4.4 4.4 4.5 4.5 4.2 4.3 5.0 5.7 6.0 6.2 6.6 6.8 7.0 7.3 7.3 7.3 7.3 7.6 7.8 7.4 7.2 7.3 7.3 7.2 7.1 7.2 7.1 7.3 7.0
6.2 6.0 5.7 5.5 5.3 5.0 4.9 4.8 4.7 4.7 4.7 4.6 4.4 4.4 4.6 4.4 4.6 4.4 4.2 4.3 4.8 5.3 5.7 6.1 6.5 6.8 7.0 7.2 7.2 7.2 7.4 7.2 7.4 7.4 7.2 7.2 7.2 7.2 7.3 7.3 7.1 7.3 7.1
6.1 5.9 5.7 5.4 5.1 4.8 4.7 4.7 4.6 4.5 4.4 4.4 4.3 4.4 4.6 4.3 3.9 3.9 4.2 4.3 4.6 5.2 5.6 5.9 6.2 6.6 6.8 7.0 7.3 7.3 7.2 7.3 7.3 7.2 7.2 7.1 7.1 7.1 7.3 7.3 7.4 7.3 7.4
6.1 5.8 5.5 5.2 5.0 4.7 4.6 4.6 4.6 4.4 4.2 4.1 3.8 4.1 4.5 4.2 4.3 4.4 4.2 4.2 4.5 5.0 5.4 5.8 6.1 6.4 6.8 7.1 7.1 7.4 7.3 7.3 7.3 7.3 7.4 7.3 7.2 7.2 7.3 7.3 7.5 7.5 7.6
6.0 5.8 5.4 5.1 4.9 4.6 4.5 4.5 4.4 4.2 4.1 3.9 3.8 3.7 3.8 3.8 4.1 4.2 4.2 4.3 4.6 4.9 5.2 5.5 6.1 6.3 6.6 6.9 7.4 7.3 7.5 7.4 7.4 7.4 7.3 7.2 7.3 7.4 7.5 7.6 7.5 7.6 7.7
6.0 5.7 5.3 5.0 4.8 4.5 4.4 4.3 4.3 4.2 4.1 3.9 3.6 3.5 3.7 3.8 4.1 4.3 4.3 4.4 4.7 5.0 5.2 5.4 5.7 6.0 6.1 6.5 7.0 7.4 7.4 7.5 7.4 7.4 7.5 7.6 7.8 7.8 7.6 7.6 7.4 7.4 7.3
5.8 5.6 5.2 4.9 4.6 4.5 4.3 4.3 4.2 4.2 4.1 3.6 3.6 3.8 3.9 4.0 4.3 4.4 4.6 4.9 4.9 4.9 5.1 5.3 5.8 6.0 5.8 6.0 6.3 6.7 7.0 7.3 7.6 7.8 7.8 8.0 8.0 8.0 7.8 7.6 7.5 7.3 7.1
5.8 5.5 5.0 4.7 4.5 4.4 4.3 4.2 4.1 4.2 4.0 3.6 3.7 3.9 3.8 3.9 4.3 4.8 5.0 5.3 5.4 5.6 5.7 5.9 6.0 6.1 6.1 6.1 6.2 6.5 6.9 7.1 7.3 7.7 8.0 8.1 8.2 8.1 8.0 7.7 7.4 7.4 7.4
5.8 5.4 4.9 4.6 4.4 4.3 4.2 4.2 4.1 4.1 3.9 3.7 3.8 3.8 3.8 4.1 4.4 5.0 5.6 5.9 6.1 6.1 6.3 6.2 6.1 6.2 6.3 6.2 6.3 6.4 7.0 7.3 7.7 8.1 8.3 8.3 8.2 8.1 8.0 8.0 7.7 7.3 7.4
5.7 5.3 4.8 4.5 4.3 4.1 4.0 4.1 4.1 4.1 3.9 3.7 3.9 3.9 3.7 4.0 4.5 5.2 5.8 6.1 6.3 6.4 6.3 6.4 6.3 6.2 6.2 6.4 6.7 6.6 7.0 7.4 7.8 8.2 8.4 8.3 8.3 8.3 8.2 7.9 7.7 7.6 7.4
Wind_Speed
3 4 5 6 6 8 9 10 12 13 14 14 15 15 15 15 15 15 16 16 17 16 16 16 16 15 12 12 12 11 12 13 14 12 12 13 15 14 14 17 18 18 19
4 5 6 6 8 9 10 12 13 14 13 15 15 15 15 15 16 16 17 16 17 18 17 16 16 12 15 14 11 15 14 14 13 18 14 11 14 14 14 15 13 19 17
4 6 7 8 9 11 13 13 14 14 15 15 15 15 16 17 17 17 18 17 17 17 16 16 18 17 16 13 13 12 11 11 14 12 12 11 11 12 13 13 12 13 16
5 7 8 9 11 12 13 14 14 14 15 15 15 16 17 17 17 16 15 18 18 17 17 16 17 17 19 18 15 15 14 13 14 12 11 11 10 12 11 11 11 10 11
6 8 10 11 12 12 14 14 15 15 15 16 16 16 16 14 11 14 15 15 16 17 17 18 18 23 30 25 13 16 16 14 12 11 11 11 11 10 12 10 11 10 12
8 10 11 12 12 13 14 15 16 16 16 15 16 16 16 11 23 27 24 16 16 16 16 16 17 27 28 34 33 33 23 17 16 11 11 12 14 11 11 11 11 10 12
9 10 11 12 13 14 14 15 15 16 15 16 16 16 16 16 26 28 29 16 16 17 16 15 14 10 20 19 27 29 29 27 22 16 14 15 12 15 13 13 14 12 12
9 11 11 13 14 14 15 15 15 13 16 16 14 15 14 14 27 29 30 18 15 18 18 19 18 17 14 15 14 13 15 15 14 10 11 12 14 13 13 13 13 12 9
10 11 12 13 14 15 15 15 14 13 14 14 13 14 14 15 26 29 26 17 16 18 18 19 18 17 21 25 13 13 12 13 15 21 21 20 22 23 17 9 11 7 6
10 12 13 14 14 15 15 15 13 13 13 11 13 14 18 17 26 29 24 14 15 14 15 20 30 21 21 20 12 10 11 12 12 12 10 15 15 15 25 16 9 7 7
10 12 13 13 14 14 14 12 12 13 13 13 13 13 15 15 15 24 28 16 13 13 11 11 3 13 14 17 16 10 13 12 13 12 10 8 7 9 9 9 12 8 5
11 12 13 14 11 11 13 13 14 12 12 12 13 12 9 11 17 18 26 28 27 11 8 5 4 5 6 7 8 10 16 15 8 8 6 5 7 6 6 10 10 9 7
11 13 14 14 13 12 12 13 10 10 9 10 10 9 10 8 9 19 23 27 27 11 6 5 5 5 6 4 4 3 5 5 5 4 7 6 2 4 7 5 6 7 3
12 13 13 13 15 12 10 9 9 9 9 9 8 8 9 8 8 9 9 10 18 12 10 4 6 3 3 3 3 4 3 4 6 7 5 4 4 4 6 6 4 4 4
11 11 13 10 14 11 10 8 9 10 11 10 8 9 7 8 10 17 16 10 11 13 7 3 4 3 1 1 2 5 2 4 5 5 5 4 4 2 5 6 4 4 7
10 9 10 9 10 9 8 10 13 18 20 19 19 15 8 18 23 22 22 21 21 21 5 4 4 5 4 3 2 4 4 4 3 5 5 5 4 3 4 5 4 2 7
10 11 10 11 9 9 9 8 9 10 14 15 17 20 19 22 23 21 20 19 18 14 5 5 5 5 4 4 4 2 3 4 3 5 6 7 4 5 9 7 6 4 5
10 15 9 8 8 8 8 8 8 8 8 8 11 16 17 21 21 20 20 14 8 8 5 5 5 5 5 5 4 3 2 3 4 4 7 6 5 6 7 7 7 5 5
9 7 10 8 7 10 8 8 7 7 7 6 8 11 14 18 18 18 17 7 7 6 6 5 5 5 4 4 4 3 2 3 3 2 4 5 6 6 6 6 7 7 7
8 16 13 7 7 8 7 7 7 7 7 7 8 8 9 11 9 10 8 7 6 6 5 5 5 4 4 3 3 3 4 4 4 3 3 4 5 5 6 6 6 6 6
6 8 14 7 7 8 7 7 6 6 7 6 7 9 21 10 8 8 8 7 7 6 6 6 5 4 4 4 3 2 3 3 5 5 5 5 5 5 6 5 5 5 5
6 7 8 7 7 7 8 7 7 6 7 6 7 9 18 8 8 7 8 8 8 8 6 7 6 5 4 4 4 3 3 3 3 5 6 7 8 6 5 5 5 6 6
7 7 7 7 8 10 8 8 7 7 7 8 8 6 8 7 9 10 9 9 9 8 8 7 7 5 5 5 5 5 4 5 4 2 6 8 6 6 5 6 5 6 8
6 7 8 7 6 7 7 8 7 10 9 8 9 7 8 9 9 11 10 9 9 9 8 7 7 9 7 6 5 6 6 6 5 4 4 8 9 9 7 5 7 7 8
5 6 7 6 6 6 8 8 8 8 8 9 8 7 9 10 10 11 10 10 10 10 10 9 7 8 10 12 10 10 11 12 10 6 4 6 13 14 11 8 7 10 10
6 6 6 5 6 6 5 7 8 8 8 8 6 8 9 10 10 11 11 11 11 11 12 9 9 11 12 10 13 15 17 16 13 13 6 5 9 8 8 11 15 8 11
Wind_Direction
348 325 312 310 309 308 303 301 299 300 301 299 297 296 294 290 287 285 280 277 273 272 271 264 260 255 264 265 258 257 256 254 263 271 270 273 274 264 261 259 258 261 268
323 319 308 301 305 306 305 307 307 304 303 300 296 292 289 286 285 282 280 277 275 273 269 266 255 256 257 252 252 255 255 257 260 267 268 268 264 268 266 267 265 261 258
314 311 306 307 312 313 311 309 306 304 301 299 293 289 286 285 287 284 281 280 275 276 275 267 266 265 259 253 249 244 244 245 252 257 264 265 263 261 260 255 253 260 259
321 316 311 314 315 312 307 304 304 302 298 296 292 290 288 285 283 285 283 283 281 274 268 264 261 256 255 253 247 242 244 244 247 250 253 255 252 250 247 257 261 247 260
312 317 319 317 315 310 306 304 305 302 297 297 297 295 291 290 290 292 285 280 274 269 263 258 254 252 252 247 239 241 239 239 238 243 253 251 246 240 241 245 253 263 256
329 321 317 314 314 309 308 308 307 303 300 300 297 296 298 294 295 296 296 289 282 273 267 263 255 253 256 257 254 247 221 229 229 231 241 240 242 237 243 246 243 249 251
318 315 314 314 313 311 310 309 306 304 304 302 301 300 299 296 298 300 300 295 291 283 280 278 274 263 244 247 248 257 257 250 225 219 227 233 236 241 235 243 244 247 246
314 315 314 314 311 312 311 308 305 303 306 305 301 301 298 297 300 301 301 300 294 285 280 274 269 266 255 241 234 233 245 253 255 259 237 237 232 248 242 237 245 240 255
314 312 313 314 312 311 307 306 306 302 302 304 303 300 298 295 298 302 305 299 297 287 280 272 262 251 256 247 231 222 233 237 250 254 252 246 240 238 226 237 228 212 245
312 310 312 311 310 310 305 304 299 304 304 304 300 296 294 298 297 301 313 304 305 294 292 281 256 246 232 241 238 223 233 237 238 243 248 254 250 245 229 229 229 219 198
310 315 314 315 316 310 308 303 310 308 304 300 299 298 293 293 303 314 319 321 312 318 313 315 213 226 246 222 227 220 228 239 239 240 243 239 254 241 216 241 212 192 193
317 316 318 319 315 310 306 311 311 306 303 308 303 308 297 308 308 319 330 330 329 327 338 358 11 257 257 252 254 248 241 239 233 234 226 218 232 220 243 227 197 187 191
319 320 321 316 315 319 317 312 308 307 307 305 307 308 310 318 321 327 337 338 334 344 326 342 320 292 267 270 326 309 306 275 219 201 226 216 181 261 235 115 147 133 215
322 322 319 321 325 321 312 310 307 303 305 302 313 314 317 323 326 337 339 337 334 334 340 342 339 312 331 104 64 4 329 246 174 192 199 171 151 239 148 144 133 162 153
319 317 320 319 327 316 310 309 310 306 312 325 323 319 346 337 333 341 342 346 340 329 346 351 347 356 7 358 14 9 347 322 194 174 173 176 150 126 135 134 146 147 120
320 320 317 326 321 310 311 312 307 315 325 331 332 341 341 338 342 347 349 351 347 351 356 13 9 357 351 332 320 23 359 358 143 169 163 179 116 121 116 92 81 27 129
319 321 317 328 311 317 319 314 318 321 322 330 341 338 346 350 348 350 357 355 349 358 359 359 2 353 353 345 329 337 42 308 120 160 160 147 150 153 138 134 144 215 128
320 320 326 312 313 317 314 314 315 320 327 329 331 339 348 353 357 3 358 351 346 355 353 350 352 352 348 339 331 345 62 354 13 88 135 130 141 146 140 142 154 156 156
318 316 327 317 324 323 315 314 319 323 323 323 326 338 341 347 352 350 357 350 343 343 343 343 342 342 339 334 333 342 303 162 172 110 114 137 153 154 158 158 157 151 159
313 332 332 327 325 321 318 318 322 324 322 332 340 337 334 348 347 347 342 333 335 334 332 331 332 328 326 332 332 324 315 244 175 149 143 154 158 166 177 174 157 162 170
322 327 335 322 329 320 324 323 323 319 319 337 331 335 345 350 325 339 334 334 329 324 319 318 317 308 309 309 307 300 284 272 220 179 170 177 175 176 190 163 160 162 155
327 333 333 323 331 321 334 327 322 318 326 315 319 332 337 345 336 332 330 326 321 315 309 306 307 296 287 283 281 271 267 258 251 182 166 186 184 177 176 177 168 165 151
335 333 328 327 333 331 335 334 329 328 323 323 336 318 329 340 335 336 328 319 312 308 304 297 290 286 282 268 261 254 246 246 242 243 175 185 173 160 169 196 172 168 170
334 337 336 328 335 343 337 338 336 338 335 330 336 348 347 341 337 328 324 319 313 308 300 289 282 278 272 258 244 232 232 229 236 223 228 183 181 176 181 196 187 176 184
340 330 338 324 330 337 338 340 341 339 336 342 356 350 345 342 336 332 328 323 320 317 312 306 289 274 266 258 241 221 210 210 215 198 211 191 185 183 183 184 195 187 183
341 339 342 326 332 325 338 344 344 339 339 350 347 349 344 344 338 334 334 331 329 326 325 320 309 300 289 261 234 206 196 197 201 199 203 201 179 180 182 182 201 184 183